Weather History for Northeast Philadelphia, PA

Change the Weather History Date:

Tuesday, January 21, 2014

  Actual Average Record
Temperature  
Mean Temperature 24 °F -  
Max Temperature 35 °F 34 °F 63 °F (2006)
Min Temperature 14 °F 21 °F 9 °F (2005)
Degree Days  
Heating Degree Days 40    
Moisture  
Dew Point 14 °F    
Average Humidity 76    
Maximum Humidity 86    
Minimum Humidity 49    
Precipitation  
Precipitation 0.41 in - - ()
Sea Level Pressure  
Sea Level Pressure 29.91 in    
Wind  
Wind Speed 13 mph (NNE)    
Max Wind Speed 21 mph    
Max Gust Speed 26 mph    
Visibility 3 miles    
Events Fog , Snow    
Averages and records for this station are not official NWS values.
T = Trace of Precipitation, MM = Missing Value Source: NWS Daily Summary

Daily Weather History Graph

Daily Weather History Graph

Search for Another Location

Airport:

Trip Planner

Search our weather history database for the weather conditions in past years. The results will help you decide how hot, cold, wet, or windy it might be!

Date:

Astronomy

Jan. 21, 2014 Rise Set
Actual Time 7:17 AM EST 5:05 PM EST
Civil Twilight 6:47 AM EST 5:35 PM EST
Nautical Twilight 6:14 AM EST 6:08 PM EST
Astronomical Twilight 5:42 AM EST 6:40 PM EST
Moon 10:36 PM EST (1/21) 9:45 AM EST (1/21)
Length of Visible Light 10h 47m
Length of Day
9h 48m
Waning Gibbous, 75% of the Moon is Illuminated
Jan 21
Waning Gibbous
Jan 24
Last Quarter
Jan 30
New
Feb 6
First Quarter
Feb 14
Full

Hourly Weather History & Observations

Time (EST) Temp. Windchill Dew Point Humidity Pressure Visibility Wind Dir Wind Speed Gust Speed Precip Events Conditions
12:54 AM 35.1 °F 28.6 °F 25.0 °F 67% 29.91 in 10.0 mi NNE 8.1 mph - N/A   Clear
1:54 AM 33.1 °F 25.5 °F 24.1 °F 70% 29.93 in 10.0 mi NNE 9.2 mph - N/A   Clear
2:54 AM 32.0 °F 22.1 °F 21.0 °F 64% 29.94 in 10.0 mi NNE 13.8 mph - N/A   Clear
3:54 AM 28.9 °F 18.6 °F 16.0 °F 58% 29.96 in 10.0 mi NNE 12.7 mph - N/A   Clear
4:54 AM 28.0 °F 19.3 °F 15.1 °F 58% 29.96 in 10.0 mi NE 9.2 mph - N/A   Partly Cloudy
5:54 AM 27.0 °F 18.7 °F 12.9 °F 56% 29.96 in 10.0 mi NE 8.1 mph - N/A   Mostly Cloudy
6:54 AM 27.0 °F 17.3 °F 10.9 °F 51% 29.96 in 10.0 mi NE 10.4 mph - N/A   Overcast
7:54 AM 27.0 °F 17.3 °F 12.0 °F 53% 29.96 in 10.0 mi NE 10.4 mph - N/A   Scattered Clouds
8:54 AM 27.0 °F 17.3 °F 10.0 °F 49% 29.96 in 10.0 mi ENE 10.4 mph - N/A   Overcast
9:54 AM 25.0 °F 11.7 °F 15.1 °F 66% 29.98 in 4.0 mi NNE 17.3 mph - 0.00 in Snow Light Snow
10:00 AM 24.8 °F 14.0 °F 15.8 °F 69% 29.98 in 2.0 mi NNE 11.5 mph - 0.00 in Snow Light Snow
10:08 AM 24.8 °F 14.0 °F 17.6 °F 74% 29.98 in 1.2 mi NNE 11.5 mph - 0.00 in Snow Light Snow
10:21 AM 23.0 °F 11.1 °F 17.6 °F 80% 29.98 in 0.5 mi NNE 12.7 mph - 0.01 in Snow Snow
10:30 AM 23.0 °F 10.1 °F 19.4 °F 86% 29.98 in 0.5 mi North 15.0 mph - 0.02 in Fog , Snow Snow
10:49 AM 23.0 °F 10.1 °F 19.4 °F 86% 29.97 in 0.5 mi NNE 15.0 mph - 0.03 in Fog , Snow Snow
10:54 AM 23.0 °F 12.4 °F 19.0 °F 85% 29.97 in 0.5 mi North 10.4 mph - 0.04 in Fog , Snow Snow
11:54 AM 23.0 °F 9.2 °F 19.0 °F 85% 29.93 in 0.2 mi NNE 17.3 mph 23.0 mph 0.07 in Fog , Snow Heavy Snow
12:54 PM 21.9 °F 8.7 °F 18.0 °F 85% 29.87 in 0.5 mi NNE 15.0 mph - 0.04 in Fog , Snow Snow
1:54 PM 21.9 °F 6.9 °F 18.0 °F 85% 29.85 in 0.5 mi NE 19.6 mph - 0.04 in Fog Light Freezing Fog
2:47 PM 21.2 °F 5.6 °F 15.8 °F 80% 29.85 in 0.5 mi NE 20.7 mph 26.5 mph 0.04 in Snow Snow
2:54 PM 21.0 °F 6.2 °F 16.0 °F 81% 29.85 in 0.5 mi NNE 18.4 mph - 0.04 in Snow Snow
3:29 PM 19.4 °F 3.2 °F 15.8 °F 86% 29.85 in 0.8 mi NNE 20.7 mph - 0.02 in Snow Light Snow
3:54 PM 19.9 °F 6.7 °F 15.1 °F 81% 29.86 in 0.5 mi NNE 13.8 mph - 0.02 in Snow Snow
4:19 PM 19.4 °F 3.6 °F 15.8 °F 86% 29.86 in 0.2 mi NE 19.6 mph 24.2 mph 0.02 in Fog , Snow Snow
4:32 PM 19.4 °F 4.1 °F 14.0 °F 80% 29.87 in 0.5 mi NNE 18.4 mph - 0.02 in Snow Snow
4:45 PM 19.4 °F 5.5 °F 14.0 °F 80% 29.87 in 0.2 mi NNE 15.0 mph - 0.03 in Snow Heavy Snow
4:54 PM 19.0 °F 4.0 °F 14.0 °F 81% 29.88 in 0.2 mi NNE 17.3 mph 26.5 mph 0.03 in Snow Heavy Snow
5:06 PM 17.6 °F 3.2 °F 14.0 °F 86% 29.87 in 0.8 mi NNE 15.0 mph - 0.01 in Snow Light Snow
5:18 PM 17.6 °F 1.7 °F 12.2 °F 79% 29.89 in 1.0 mi NE 18.4 mph - 0.01 in Snow Light Snow
5:45 PM 17.6 °F 1.7 °F 12.2 °F 79% 29.89 in 0.8 mi NE 18.4 mph - 0.03 in Snow Light Snow
5:54 PM 17.1 °F 4.3 °F 12.9 °F 84% 29.90 in 0.8 mi NE 11.5 mph - 0.03 in Snow Light Snow
6:01 PM 17.6 °F 3.7 °F 12.2 °F 79% 29.91 in 1.0 mi NNE 13.8 mph - 0.00 in Snow Light Snow
6:54 PM 17.1 °F 2.5 °F 12.0 °F 81% 29.91 in 0.8 mi NNE 15.0 mph - 0.03 in Snow Light Snow
7:12 PM 15.8 °F 3.4 °F 12.2 °F 86% 29.92 in 0.8 mi NE 10.4 mph - 0.01 in Snow Light Snow
7:54 PM 16.0 °F 2.9 °F 12.0 °F 84% 29.92 in 1.0 mi NE 11.5 mph - 0.05 in Snow Light Snow
8:01 PM 15.8 °F 0.9 °F 12.2 °F 86% 29.90 in 0.8 mi NE 15.0 mph - 0.00 in Snow Light Snow
8:20 PM 15.8 °F 4.2 °F 12.2 °F 86% 29.90 in 1.0 mi NE 9.2 mph - 0.01 in Snow Light Snow
8:37 PM 15.8 °F 0.9 °F 10.4 °F 79% 29.91 in 1.5 mi NNE 15.0 mph 20.7 mph 0.02 in Snow Light Snow
8:54 PM 16.0 °F 1.1 °F 10.0 °F 77% 29.91 in 1.8 mi NNE 15.0 mph - 0.02 in Snow Light Snow
9:07 PM 15.8 °F 0.3 °F 10.4 °F 79% 29.91 in 2.0 mi NNE 16.1 mph 23.0 mph 0.00 in Snow Light Snow
9:54 PM 15.1 °F 0.5 °F 9.0 °F 77% 29.92 in 2.0 mi NNE 13.8 mph - 0.00 in Snow Light Snow
10:12 PM 15.8 °F -0.2 °F 8.6 °F 73% 29.90 in 2.5 mi NNE 17.3 mph 23.0 mph 0.00 in Snow Light Snow
10:40 PM 15.8 °F 0.9 °F 8.6 °F 73% 29.89 in 2.0 mi North 15.0 mph - 0.00 in Snow Light Snow
10:50 PM 15.8 °F 0.9 °F 8.6 °F 73% 29.88 in 2.0 mi North 15.0 mph 21.9 mph 0.00 in Snow Light Snow
10:54 PM 15.1 °F -0.6 °F 9.0 °F 77% 29.89 in 2.5 mi North 16.1 mph 23.0 mph 0.00 in Snow Light Snow
11:43 PM 14.0 °F -0.2 °F 8.6 °F 79% 29.86 in 3.0 mi North 12.7 mph 21.9 mph 0.00 in Snow Light Snow
11:54 PM 14.0 °F -2.0 °F 8.1 °F 77% 29.86 in 3.0 mi North 16.1 mph - 0.00 in Snow Light Snow